Location: Peterborough
(44.3091°N, 78.3197°W)
Time: 04:46:24
(UTC-04:00)

Tiros 1 - Pass Details

Date: 11 April 2023
Orbit: 627 x 661 km, 48.4° (Epoch: 09 June)

Event Time Altitude Azimuth Distance (km) Brightness Sun altitude
Rises 01:18:27 0° 253° (WSW) 2,946 - -37.5°
Reaches altitude 10° 01:20:46 10° 255° (WSW) 2,043 - -37.4°
Maximum altitude 01:25:29 75° 341° (NNW) 678 - -37.4°
Drops below altitude 10° 01:30:16 10° 67° (ENE) 2,069 - -37.3°
Exits shadow 01:32:03 - 69° (ENE) 2,759 10.7 -37.3°
Sets 01:32:38 0° 69° (ENE) 2,985 10.9 -37.3°
